Weather History for KHOU - July, 2013

Change the Weather History Date:

Wednesday, July 10, 2013

  Actual Average Record
Temperature  
Mean Temperature 86 °F 84 °F  
Max Temperature 97 °F 93 °F 101 °F (1980)
Min Temperature 75 °F 75 °F 65 °F (1893)
Cooling Degree Days 21 19  
Month to date cooling degree days 186 190  
Year to date cooling degree days 1347 1362  
Since 1 June cooling degree days 777 710  
Growing Degree Days 36 (Base 50)    
Moisture  
Dew Point 73 °F    
Average Humidity 72    
Maximum Humidity 100    
Minimum Humidity 43    
Precipitation  
Precipitation 0.00 in 0.14 in 1.75 in (1925)
Month to date precipitation 0.53 1.52  
Year to date precipitation 14.31 25.84  
Sea Level Pressure  
Sea Level Pressure 30.05 in    
Wind  
Wind Speed 5 mph (South)    
Max Wind Speed 17 mph    
Max Gust Speed 23 mph    
Visibility 10 miles    
Events      
T = Trace of Precipitation, MM = Missing Value Source: NWS Daily Summary

Daily Weather History Graph

Daily Weather History Graph

Search for Another Location

Airport or City:

Trip Planner

Search our weather history database for the weather conditions in past years. The results will help you decide how hot, cold, wet, or windy it might be!

Date:

Astronomy

Jul. 10, 2013 Rise Set
Actual Time 6:28 AM CDT 8:24 PM CDT
Civil Twilight 6:01 AM CDT 8:51 PM CDT
Nautical Twilight 5:29 AM CDT 9:23 PM CDT
Astronomical Twilight 4:54 AM CDT 9:58 PM CDT
Moon 8:36 AM CDT (7/10) 9:50 PM CDT (7/10)
Length of Visible Light 14h 49m
Length of Day
13h 55m
Waxing Crescent, 5% of the Moon is Illuminated
Jul 10
Waxing Crescent
Jul 15
First Quarter
Jul 22
Full
Jul 29
Last Quarter
Aug 6
New

Hourly Weather History & Observations

Time (CDT) Temp. Heat Index Dew Point Humidity Pressure Visibility Wind Dir Wind Speed Gust Speed Precip Events Conditions
12:53 AM 80.1 °F 85.1 °F 75.0 °F 85% 30.09 in 10.0 mi SSE 3.5 mph - N/A   Scattered Clouds
1:53 AM 80.1 °F 84.5 °F 73.9 °F 81% 30.09 in 10.0 mi South 3.5 mph - N/A   Scattered Clouds
2:53 AM 80.1 °F 84.5 °F 73.9 °F 81% 30.09 in 10.0 mi Calm Calm - N/A   Scattered Clouds
3:53 AM 79.0 °F - 73.9 °F 84% 30.09 in 10.0 mi Calm Calm - N/A   Scattered Clouds
4:53 AM 79.0 °F - 73.9 °F 84% 30.09 in 10.0 mi Calm Calm - N/A   Scattered Clouds
5:53 AM 78.1 °F - 73.9 °F 87% 30.09 in 10.0 mi Calm Calm - N/A   Scattered Clouds
6:53 AM 77.0 °F - 73.9 °F 90% 30.09 in 10.0 mi Calm Calm - N/A   Scattered Clouds
7:53 AM 81.0 °F 86.7 °F 75.0 °F 82% 30.10 in 10.0 mi Calm Calm - N/A   Scattered Clouds
8:53 AM 84.9 °F 92.1 °F 73.9 °F 69% 30.11 in 10.0 mi WSW 4.6 mph - N/A   Scattered Clouds
9:53 AM 87.1 °F 94.5 °F 73.0 °F 63% 30.10 in 10.0 mi SSW 5.8 mph - N/A   Scattered Clouds
10:53 AM 90.0 °F 96.4 °F 71.1 °F 54% 30.10 in 10.0 mi South 9.2 mph - N/A   Scattered Clouds
11:53 AM 91.9 °F 96.9 °F 69.1 °F 47% 30.09 in 10.0 mi Variable 5.8 mph - N/A   Scattered Clouds
12:53 PM 93.9 °F 98.6 °F 68.0 °F 43% 30.08 in 10.0 mi WSW 6.9 mph - N/A   Scattered Clouds
1:53 PM 95.0 °F 100.7 °F 69.1 °F 43% 30.05 in 10.0 mi South 10.4 mph - N/A   Scattered Clouds
2:53 PM 91.0 °F 98.2 °F 72.0 °F 53% 30.03 in 10.0 mi SSE 15.0 mph 19.6 mph N/A   Scattered Clouds
3:53 PM 95.0 °F 103.2 °F 72.0 °F 47% 30.02 in 10.0 mi South 9.2 mph - N/A   Mostly Cloudy
4:53 PM 93.9 °F 100.8 °F 71.1 °F 47% 30.00 in 10.0 mi South 11.5 mph - N/A   Scattered Clouds
5:53 PM 93.0 °F 100.1 °F 71.1 °F 49% 29.98 in 10.0 mi South 10.4 mph 19.6 mph N/A   Scattered Clouds
6:53 PM 91.9 °F 98.4 °F 71.1 °F 50% 29.97 in 10.0 mi South 10.4 mph - N/A   Scattered Clouds
7:53 PM 89.1 °F 95.0 °F 71.1 °F 55% 29.98 in 10.0 mi South 10.4 mph - N/A   Scattered Clouds
8:53 PM 86.0 °F 93.0 °F 73.0 °F 65% 29.98 in 10.0 mi South 10.4 mph - N/A   Partly Cloudy
9:53 PM 84.0 °F 91.2 °F 73.9 °F 72% 30.00 in 10.0 mi South 9.2 mph - N/A   Partly Cloudy
10:53 PM 82.0 °F 87.9 °F 73.9 °F 76% 30.01 in 10.0 mi South 8.1 mph - N/A   Partly Cloudy
11:53 PM 81.0 °F 86.2 °F 73.9 °F 79% 30.01 in 10.0 mi SSW 5.8 mph - N/A   Partly Cloudy